This is the latest recevied weather packets stored in our database for station/object N1ICS-1. If no packets are shown the sender has not sent any weather packets the latest 10 day(s).
| Time | Temp. | Humidity | Pressure | Rain* | Wind** | Luminosity | Snow |
|---|---|---|---|---|---|---|---|
| 1777993802 | 14.44° C | 89% | 1009.8 hPa | 0 mm | - | 77 W/m² | - |
| 1777993502 | 14.44° C | 88% | 1009.8 hPa | 0 mm | - | 69 W/m² | - |
| 1777993202 | 14.44° C | 89% | 1009.6 hPa | 0 mm | - | 85 W/m² | - |
| 1777992902 | 15° C | 90% | 1009.6 hPa | 0 mm | - | 55 W/m² | - |
| 1777992602 | 15° C | 90% | 1009.5 hPa | 0 mm | - | 49 W/m² | - |
| 1777992302 | 15° C | 90% | 1009.6 hPa | 0 mm | - | 39 W/m² | - |
| 1777992002 | 15° C | 90% | 1009.3 hPa | 0 mm | - | 57 W/m² | - |
| 1777991703 | 15° C | 90% | 1009.5 hPa | 0 mm | - | 61 W/m² | - |
| 1777991402 | 15° C | 89% | 1009.2 hPa | 0 mm | - | 57 W/m² | - |
| 1777991102 | 15.56° C | 89% | 1009.2 hPa | 0 mm | - | 95 W/m² | - |
| 1777990802 | 15.56° C | 88% | 1009.2 hPa | 0 mm | - | 94 W/m² | - |
| 1777990501 | 15.56° C | 87% | 1009 hPa | 0 mm | - | 155 W/m² | - |
| 1777989902 | 16.11° C | 87% | 1008.9 hPa | 0 mm | - | 399 W/m² | - |
| 1777989602 | 15.56° C | 87% | 1008.5 hPa | 0 mm | - | 322 W/m² | - |
| 1777989302 | 15.56° C | 88% | 1008.8 hPa | 0 mm | - | 200 W/m² | - |
| 1777989002 | 15.56° C | 88% | 1008.6 hPa | 0 mm | - | 111 W/m² | - |
| 1777988702 | 15.56° C | 87% | 1008.2 hPa | 0 mm | - | 134 W/m² | - |
| 1777988401 | 15.56° C | 87% | 1008.2 hPa | 0 mm | - | 110 W/m² | - |
| 1777988102 | 15.56° C | 87% | 1008.4 hPa | 0 mm | - | 110 W/m² | - |
| 1777987801 | 15.56° C | 87% | 1008.5 hPa | 0 mm | - | 135 W/m² | - |
| 1777987501 | 15.56° C | 86% | 1008.4 hPa | 0 mm | - | 188 W/m² | - |
| 1777987202 | 16.11° C | 86% | 1008.1 hPa | 0 mm | - | 282 W/m² | - |
| 1777986901 | 16.11° C | 86% | 1007.9 hPa | 0 mm | - | 385 W/m² | - |
| 1777986602 | 16.11° C | 86% | 1007.7 hPa | 0 mm | - | 353 W/m² | - |
| 1777986301 | 15.56° C | 87% | 1007.5 hPa | 0 mm | - | 352 W/m² | - |
* Rain latest hour (hover to see other rain measurements)
** Current wind speed in m/s (hover to see current wind gust speed)